| time (UTC) | temp C | wind direction | speed KPH | gust KPH | rain 1hr cm | rain 24hr cm | rain mn cm | humidity % | barometer mb |
| 20260902092850 | 23 | 132 | 0.0 | 0.0 | 0.00 | 0.00 | 0.00 | 93 | 1018.4 |
| 20260902092346 | 24 | 131 | 0.0 | 0.0 | 0.00 | 0.00 | 0.00 | 93 | 1018.1 |
| 20260902091847 | 24 | 130 | 0.0 | 0.0 | 0.00 | 0.00 | 0.00 | 93 | 1018.0 |
| 20260902091342 | 24 | 131 | 0.0 | 0.0 | 0.00 | 0.00 | 0.00 | 93 | 1018.2 |
| 20260902090839 | 24 | 131 | 0.0 | 0.0 | 0.00 | 0.00 | 0.00 | 93 | 1018.2 |
| 20260902090338 | 24 | 131 | 0.0 | 0.0 | 0.00 | 0.00 | 0.00 | 93 | 1018.1 |
| 20260902085837 | 24 | 132 | 0.0 | 0.0 | 0.00 | 0.00 | 0.00 | 93 | 1018.2 |
| 20260902085332 | 24 | 131 | 0.0 | 0.0 | 0.00 | 0.00 | 0.00 | 93 | 1018.2 |
| 20260902084828 | 24 | 131 | 0.0 | 0.0 | 0.00 | 0.00 | 0.00 | 93 | 1018.4 |
| 20260902084325 | 24 | 131 | 0.0 | 0.0 | 0.00 | 0.00 | 0.00 | 93 | 1018.4 |
| 20260902083820 | 24 | 131 | 0.0 | 0.0 | 0.00 | 0.00 | 0.00 | 93 | 1018.1 |
| 20260902083319 | 24 | 131 | 0.0 | 0.0 | 0.00 | 0.00 | 0.00 | 93 | 1018.1 |
| 20260902082814 | 24 | 131 | 0.0 | 0.0 | 0.00 | 0.00 | 0.00 | 93 | 1018.4 |
| 20260902082311 | 24 | 132 | 0.0 | 0.0 | 0.00 | 0.00 | 0.00 | 93 | 1018.2 |
| 20260902081807 | 24 | 131 | 0.0 | 0.0 | 0.00 | 0.00 | 0.00 | 93 | 1018.1 |
| 20260902081302 | 24 | 131 | 0.0 | 0.0 | 0.00 | 0.00 | 0.00 | 93 | 1018.3 |
| 20260902080757 | 24 | 130 | 0.0 | 0.0 | 0.00 | 0.00 | 0.00 | 93 | 1018.4 |
| 20260902080254 | 24 | 130 | 0.0 | 0.0 | 0.00 | 0.00 | 0.00 | 93 | 1018.3 |
| 20260902075753 | 24 | 127 | 0.0 | 0.0 | 0.00 | 0.00 | 0.00 | 93 | 1018.3 |
| 20260902075250 | 24 | 130 | 0.0 | 0.0 | 0.00 | 0.00 | 0.00 | 93 | 1018.3 |
| 20260902074750 | 24 | 130 | 0.0 | 0.0 | 0.00 | 0.00 | 0.00 | 93 | 1018.5 |
| 20260902074245 | 24 | 131 | 0.0 | 0.0 | 0.00 | 0.00 | 0.00 | 93 | 1018.2 |
| 20260902073740 | 24 | 132 | 0.0 | 0.0 | 0.00 | 0.00 | 0.00 | 93 | 1018.4 |
| 20260902073236 | 24 | 132 | 0.0 | 0.0 | 0.00 | 0.00 | 0.00 | 93 | 1018.2 |
| 20260902072732 | 24 | 131 | 0.0 | 0.0 | 0.00 | 0.00 | 0.00 | 93 | 1018.6 |
| 20260902072228 | 25 | 131 | 0.0 | 0.0 | 0.00 | 0.00 | 0.00 | 93 | 1018.4 |
| 20260902071724 | 25 | 132 | 0.0 | 0.0 | 0.00 | 0.00 | 0.00 | 93 | 1018.5 |
| 20260902071219 | 25 | 132 | 0.0 | 0.0 | 0.00 | 0.00 | 0.00 | 93 | 1018.5 |
| 20260902070715 | 25 | 131 | 0.0 | 0.0 | 0.00 | 0.00 | 0.00 | 93 | 1018.5 |
| 20260902070214 | 25 | 129 | 0.0 | 0.0 | 0.00 | 0.00 | 0.00 | 93 | 1018.4 |
| 20260902065713 | 25 | 130 | 0.0 | 0.0 | 0.00 | 0.00 | 0.00 | 93 | 1018.4 |
| 20260902065209 | 25 | 131 | 0.0 | 0.0 | 0.00 | 0.00 | 0.00 | 93 | 1018.4 |
| 20260902064705 | 25 | 129 | 0.0 | 0.0 | 0.00 | 0.00 | 0.00 | 93 | 1018.5 |
| 20260902064201 | 25 | 130 | 0.0 | 0.0 | 0.00 | 0.00 | 0.00 | 92 | 1018.3 |
| 20260902063656 | 25 | 126 | 0.0 | 0.0 | 0.00 | 0.00 | 0.00 | 92 | 1018.4 |
| 20260902063155 | 25 | 131 | 0.0 | 0.0 | 0.00 | 0.00 | 0.00 | 92 | 1018.2 |
| 20260902062655 | 25 | 130 | 0.0 | 0.0 | 0.00 | 0.00 | 0.00 | 92 | 1018.5 |
| 20260902062150 | 25 | 131 | 0.0 | 0.0 | 0.00 | 0.00 | 0.00 | 92 | 1018.4 |
| 20260902061649 | 25 | 129 | 0.0 | 0.0 | 0.00 | 0.00 | 0.00 | 92 | 1018.3 |
| 20260902061145 | 25 | 131 | 0.0 | 0.0 | 0.00 | 0.00 | 0.00 | 92 | 1018.4 |
| 20260902060642 | 25 | 130 | 0.0 | 0.0 | 0.00 | 0.00 | 0.00 | 92 | 1018.3 |
| 20260902060138 | 25 | 130 | 0.0 | 0.0 | 0.00 | 0.00 | 0.00 | 92 | 1018.2 |
| 20260902055633 | 25 | 128 | 0.0 | 0.0 | 0.00 | 0.00 | 0.00 | 92 | 1018.3 |
| 20260902055129 | 25 | 132 | 0.0 | 0.0 | 0.00 | 0.00 | 0.00 | 92 | 1018.3 |
| 20260902054624 | 25 | 131 | 0.0 | 0.0 | 0.00 | 0.00 | 0.00 | 92 | 1018.2 |
| 20260902054120 | 25 | 131 | 0.0 | 0.0 | 0.00 | 0.00 | 0.00 | 92 | 1018.4 |
| 20260902053615 | 25 | 132 | 0.0 | 0.0 | 0.00 | 0.00 | 0.00 | 92 | 1018.3 |
| 20260902053114 | 25 | 131 | 0.0 | 0.0 | 0.00 | 0.00 | 0.00 | 92 | 1018.4 |
| 20260902052609 | 25 | 132 | 0.0 | 0.0 | 0.00 | 0.00 | 0.00 | 92 | 1018.6 |
| 20260902052104 | 25 | 131 | 0.0 | 0.0 | 0.00 | 0.00 | 0.00 | 92 | 1018.6 |
| 20260902051604 | 25 | 132 | 0.0 | 0.0 | 0.00 | 0.00 | 0.00 | 92 | 1018.6 |
| 20260902051104 | 25 | 132 | 0.0 | 0.0 | 0.00 | 0.00 | 0.00 | 92 | 1018.5 |
| 20260902050604 | 25 | 132 | 0.0 | 0.0 | 0.00 | 0.00 | 0.00 | 92 | 1018.7 |
| 20260902050059 | 25 | 132 | 0.0 | 0.0 | 0.00 | 0.00 | 0.00 | 92 | 1018.7 |
| 20260902045554 | 25 | 130 | 0.0 | 0.0 | 0.00 | 0.03 | 0.03 | 92 | 1018.6 |
| 20260902045051 | 25 | 131 | 0.0 | 0.0 | 0.00 | 0.03 | 0.03 | 92 | 1018.8 |
| 20260902044550 | 25 | 131 | 0.0 | 0.0 | 0.00 | 0.03 | 0.03 | 92 | 1018.6 |
| 20260902044046 | 25 | 131 | 0.0 | 0.0 | 0.00 | 0.03 | 0.03 | 92 | 1018.7 |
| 20260902043542 | 25 | 130 | 0.0 | 0.0 | 0.00 | 0.03 | 0.03 | 92 | 1018.6 |
| 20260902043036 | 25 | 132 | 0.0 | 0.0 | 0.00 | 0.03 | 0.03 | 91 | 1018.6 |
| 20260902042537 | 25 | 131 | 0.0 | 0.0 | 0.00 | 0.03 | 0.03 | 91 | 1018.8 |
| 20260902042032 | 25 | 131 | 0.0 | 0.0 | 0.00 | 0.03 | 0.03 | 91 | 1019.0 |
| 20260902041531 | 25 | 131 | 0.0 | 0.0 | 0.00 | 0.03 | 0.03 | 91 | 1018.9 |
| 20260902041027 | 25 | 131 | 0.0 | 0.0 | 0.00 | 0.03 | 0.03 | 91 | 1018.8 |
| 20260902040526 | 25 | 130 | 0.0 | 0.0 | 0.00 | 0.03 | 0.03 | 91 | 1018.8 |
| 20260902040027 | 25 | 131 | 0.0 | 0.0 | 0.00 | 0.03 | 0.03 | 91 | 1018.7 |
| 20260902035526 | 25 | 131 | 0.0 | 0.0 | 0.00 | 0.03 | 0.03 | 91 | 1018.7 |
| 20260902035021 | 25 | 131 | 0.0 | 0.0 | 0.00 | 0.03 | 0.03 | 91 | 1018.7 |
| 20260902034520 | 25 | 131 | 0.0 | 0.0 | 0.00 | 0.03 | 0.03 | 91 | 1018.6 |
| 20260902034019 | 25 | 131 | 0.0 | 0.0 | 0.00 | 0.03 | 0.03 | 91 | 1018.6 |
| 20260902033519 | 25 | 131 | 0.0 | 0.0 | 0.00 | 0.03 | 0.03 | 91 | 1018.6 |
| 20260902033014 | 25 | 132 | 0.0 | 0.0 | 0.00 | 0.03 | 0.03 | 91 | 1018.6 |
| 20260902032513 | 25 | 131 | 0.0 | 0.0 | 0.00 | 0.03 | 0.03 | 91 | 1018.7 |
| 20260902032008 | 25 | 134 | 0.0 | 0.0 | 0.00 | 0.03 | 0.03 | 90 | 1018.7 |
| 20260902031508 | 25 | 130 | 0.0 | 0.0 | 0.00 | 0.03 | 0.03 | 90 | 1018.7 |
| 20260902031005 | 25 | 131 | 0.0 | 0.0 | 0.00 | 0.03 | 0.03 | 90 | 1018.5 |
| 20260902030505 | 25 | 131 | 0.0 | 0.0 | 0.00 | 0.03 | 0.03 | 90 | 1018.6 |
| 20260902030004 | 25 | 131 | 0.0 | 0.0 | 0.00 | 0.03 | 0.03 | 90 | 1018.6 |
| 20260902025459 | 25 | 130 | 0.0 | 0.0 | 0.00 | 0.03 | 0.03 | 90 | 1018.9 |
| 20260902024954 | 25 | 129 | 0.0 | 0.0 | 0.00 | 0.03 | 0.03 | 90 | 1018.7 |
| 20260902024449 | 25 | 129 | 0.0 | 0.0 | 0.00 | 0.03 | 0.03 | 90 | 1018.6 |
| 20260902023944 | 25 | 130 | 0.0 | 0.0 | 0.00 | 0.03 | 0.03 | 90 | 1018.8 |
| 20260902023440 | 25 | 131 | 0.0 | 0.0 | 0.00 | 0.03 | 0.03 | 90 | 1018.7 |
| 20260902022939 | 25 | 130 | 0.0 | 0.0 | 0.00 | 0.03 | 0.03 | 90 | 1018.4 |
| 20260902022434 | 25 | 130 | 0.0 | 0.0 | 0.00 | 0.03 | 0.03 | 90 | 1018.4 |
| 20260902021930 | 25 | 131 | 0.0 | 0.0 | 0.00 | 0.03 | 0.03 | 90 | 1018.3 |
| 20260902021425 | 25 | 130 | 0.0 | 0.0 | 0.00 | 0.03 | 0.03 | 90 | 1018.0 |
| 20260902020920 | 25 | 131 | 0.0 | 0.0 | 0.00 | 0.03 | 0.03 | 90 | 1018.1 |
| 20260902020417 | 25 | 128 | 0.0 | 0.0 | 0.00 | 0.03 | 0.03 | 90 | 1018.2 |
| 20260902015912 | 25 | 129 | 0.0 | 0.0 | 0.00 | 0.03 | 0.03 | 90 | 1017.9 |
| 20260902015407 | 25 | 131 | 0.0 | 0.0 | 0.00 | 0.03 | 0.03 | 89 | 1017.8 |
| 20260902014903 | 25 | 130 | 0.0 | 0.0 | 0.00 | 0.03 | 0.03 | 89 | 1017.8 |
| 20260902014359 | 25 | 131 | 0.0 | 0.0 | 0.00 | 0.03 | 0.03 | 89 | 1017.9 |
| 20260902013858 | 25 | 131 | 0.0 | 0.0 | 0.00 | 0.03 | 0.03 | 89 | 1017.9 |
| 20260902013354 | 25 | 131 | 0.0 | 0.0 | 0.00 | 0.03 | 0.03 | 89 | 1017.9 |
| 20260902012849 | 25 | 131 | 0.0 | 0.0 | 0.00 | 0.03 | 0.03 | 88 | 1017.8 |
| 20260902012345 | 25 | 131 | 0.0 | 0.0 | 0.00 | 0.03 | 0.03 | 88 | 1017.9 |
| 20260902011841 | 25 | 131 | 0.0 | 0.0 | 0.00 | 0.03 | 0.03 | 88 | 1018.1 |
| 20260902011340 | 25 | 131 | 0.0 | 0.0 | 0.00 | 0.03 | 0.03 | 88 | 1017.9 |
| 20260902010835 | 25 | 131 | 0.0 | 0.0 | 0.00 | 0.03 | 0.03 | 87 | 1018.0 |
| 20260902010330 | 25 | 131 | 0.0 | 0.0 | 0.00 | 0.03 | 0.03 | 87 | 1017.8 |
| 20260902005829 | 26 | 132 | 0.0 | 0.0 | 0.00 | 0.03 | 0.03 | 87 | 1017.8 |
| 20260902005329 | 26 | 134 | 0.0 | 0.0 | 0.00 | 0.03 | 0.03 | 86 | 1017.7 |
| 20260902004825 | 26 | 184 | 0.0 | 0.0 | 0.00 | 0.03 | 0.03 | 86 | 1017.8 |
| 20260902004325 | 26 | 183 | 0.0 | 0.0 | 0.00 | 0.03 | 0.03 | 85 | 1017.6 |
| 20260902003820 | 26 | 182 | 0.0 | 0.0 | 0.00 | 0.03 | 0.03 | 85 | 1017.6 |
| 20260902003315 | 26 | 182 | 0.0 | 0.0 | 0.00 | 0.03 | 0.03 | 84 | 1017.6 |
| 20260902002811 | 26 | 182 | 0.0 | 0.0 | 0.00 | 0.03 | 0.03 | 84 | 1017.5 |
| 20260902002310 | 26 | 167 | 0.0 | 0.0 | 0.00 | 0.03 | 0.03 | 84 | 1017.4 |
| 20260902001806 | 27 | 158 | 0.0 | 0.0 | 0.00 | 0.03 | 0.03 | 83 | 1017.4 |
| 20260902001301 | 27 | 215 | 0.0 | 0.0 | 0.00 | 0.03 | 0.03 | 82 | 1017.5 |
| 20260902000800 | 27 | 214 | 0.0 | 0.0 | 0.00 | 0.03 | 0.03 | 82 | 1017.4 |
| 20260902000257 | 27 | 214 | 0.0 | 0.0 | 0.00 | 0.03 | 0.03 | 81 | 1017.2 |
| 20260901235750 | 27 | 232 | 0.0 | 0.0 | 0.00 | 0.03 | 0.03 | 81 | 1017.3 |
| 20260901235245 | 27 | 221 | 0.0 | 0.0 | 0.00 | 0.03 | 0.03 | 80 | 1017.2 |
| 20260901234744 | 27 | 208 | 0.0 | 0.0 | 0.00 | 0.03 | 0.03 | 81 | 1017.4 |
| 20260901234239 | 27 | 131 | 0.0 | 0.0 | 0.00 | 0.03 | 0.03 | 81 | 1017.4 |
| 20260901233734 | 27 | 196 | 0.0 | 0.0 | 0.00 | 0.03 | 0.03 | 81 | 1017.2 |
| 20260901233230 | 28 | 193 | 0.0 | 0.0 | 0.00 | 0.03 | 0.03 | 81 | 1017.4 |
| 20260901232730 | 28 | 197 | 0.0 | 0.0 | 0.00 | 0.03 | 0.03 | 80 | 1017.4 |
| 20260901232226 | 28 | 214 | 0.0 | 0.0 | 0.00 | 0.03 | 0.03 | 80 | 1017.1 |
| 20260901231722 | 28 | 206 | 0.0 | 0.0 | 0.00 | 0.03 | 0.03 | 79 | 1017.3 |
| 20260901231218 | 28 | 197 | 0.0 | 0.0 | 0.00 | 0.03 | 0.03 | 79 | 1017.6 |
| 20260901230714 | 28 | 195 | 0.0 | 0.0 | 0.00 | 0.03 | 0.03 | 79 | 1017.4 |
| 20260901230214 | 28 | 214 | 0.0 | 0.0 | 0.00 | 0.03 | 0.03 | 80 | 1017.4 |
| 20260901225709 | 28 | 208 | 0.0 | 0.0 | 0.00 | 0.03 | 0.03 | 79 | 1017.4 |
| 20260901225209 | 28 | 188 | 0.0 | 0.0 | 0.00 | 0.03 | 0.03 | 80 | 1017.6 |
| 20260901224705 | 28 | 225 | 0.0 | 0.0 | 0.00 | 0.03 | 0.03 | 79 | 1017.5 |
| 20260901224201 | 28 | 225 | 0.0 | 0.0 | 0.00 | 0.03 | 0.03 | 79 | 1017.4 |
| 20260901223656 | 28 | 207 | 0.0 | 0.0 | 0.00 | 0.03 | 0.03 | 79 | 1017.5 |
| 20260901223151 | 28 | 218 | 0.0 | 0.0 | 0.00 | 0.03 | 0.03 | 80 | 1017.7 |
| 20260901222647 | 27 | 198 | 0.0 | 0.0 | 0.00 | 0.03 | 0.03 | 80 | 1017.7 |
| 20260901222143 | 27 | 220 | 0.0 | 0.0 | 0.00 | 0.03 | 0.03 | 81 | 1018.0 |
| 20260901221639 | 28 | 211 | 0.0 | 0.0 | 0.00 | 0.03 | 0.03 | 80 | 1017.8 |
| 20260901221135 | 28 | 225 | 0.0 | 0.0 | 0.00 | 0.03 | 0.03 | 80 | 1017.6 |
| 20260901220633 | 28 | 225 | 0.0 | 0.0 | 0.00 | 0.03 | 0.03 | 79 | 1017.7 |
| 20260901220133 | 28 | 220 | 0.0 | 0.0 | 0.00 | 0.03 | 0.03 | 80 | 1017.6 |
| 20260901215631 | 27 | 220 | 0.0 | 0.0 | 0.00 | 0.03 | 0.03 | 81 | 1017.6 |
| 20260901215126 | 27 | 220 | 0.0 | 0.0 | 0.00 | 0.03 | 0.03 | 81 | 1017.9 |
| 20260901214625 | 27 | 219 | 0.0 | 0.0 | 0.00 | 0.03 | 0.03 | 81 | 1017.8 |
| 20260901214125 | 27 | 220 | 0.0 | 0.0 | 0.00 | 0.03 | 0.03 | 82 | 1018.0 |
| 20260901213624 | 27 | 220 | 0.0 | 0.0 | 0.00 | 0.03 | 0.03 | 83 | 1018.0 |
| 20260901213119 | 27 | 219 | 0.0 | 0.0 | 0.00 | 0.03 | 0.03 | 83 | 1018.0 |
| 20260901212619 | 27 | 219 | 0.0 | 0.0 | 0.00 | 0.03 | 0.03 | 83 | 1018.1 |
| 20260901212115 | 27 | 219 | 0.0 | 0.0 | 0.00 | 0.03 | 0.03 | 84 | 1017.9 |
| 20260901211610 | 27 | 219 | 0.0 | 0.0 | 0.00 | 0.03 | 0.03 | 83 | 1017.9 |
| 20260901211107 | 27 | 219 | 0.0 | 0.0 | 0.00 | 0.03 | 0.03 | 83 | 1017.6 |
| 20260901210601 | 27 | 219 | 0.0 | 0.0 | 0.00 | 0.03 | 0.03 | 84 | 1017.8 |
| 20260901210059 | 26 | 219 | 0.0 | 0.0 | 0.00 | 0.03 | 0.03 | 84 | 1017.8 |
| 20260901205554 | 26 | 219 | 0.0 | 0.0 | 0.00 | 0.03 | 0.03 | 84 | 1017.8 |
| 20260901205053 | 26 | 219 | 0.0 | 0.0 | 0.00 | 0.03 | 0.03 | 84 | 1017.9 |
| 20260901204549 | 26 | 219 | 0.0 | 0.0 | 0.00 | 0.03 | 0.03 | 85 | 1018.0 |
| 20260901204045 | 26 | 246 | 0.0 | 0.0 | 0.00 | 0.03 | 0.03 | 85 | 1018.2 |
| 20260901203544 | 26 | 211 | 0.0 | 0.0 | 0.00 | 0.03 | 0.03 | 87 | 1018.1 |
| 20260901203040 | 26 | 211 | 0.0 | 0.0 | 0.00 | 0.03 | 0.03 | 87 | 1017.9 |
| 20260901202540 | 26 | 211 | 0.0 | 0.0 | 0.00 | 0.03 | 0.03 | 87 | 1018.5 |
| 20260901202036 | 26 | 211 | 0.0 | 0.0 | 0.00 | 0.03 | 0.03 | 87 | 1018.5 |
| 20260901201531 | 26 | 211 | 0.0 | 0.0 | 0.00 | 0.03 | 0.03 | 87 | 1018.4 |
| 20260901201031 | 26 | 211 | 0.0 | 0.0 | 0.00 | 0.03 | 0.03 | 87 | 1018.7 |
| 20260901200530 | 26 | 209 | 0.0 | 0.0 | 0.00 | 0.03 | 0.03 | 86 | 1018.5 |
| 20260901200025 | 26 | 208 | 0.0 | 0.0 | 0.00 | 0.03 | 0.03 | 86 | 1018.7 |
| 20260901195523 | 26 | 208 | 0.0 | 0.0 | 0.00 | 0.03 | 0.03 | 85 | 1018.6 |
| 20260901195023 | 26 | 208 | 0.0 | 0.0 | 0.00 | 0.03 | 0.03 | 86 | 1018.5 |
| 20260901194518 | 26 | 208 | 0.0 | 0.0 | 0.00 | 0.03 | 0.03 | 86 | 1018.8 |
| 20260901194013 | 26 | 205 | 0.0 | 0.0 | 0.00 | 0.03 | 0.03 | 85 | 1018.8 |
| 20260901193513 | 26 | 211 | 0.0 | 0.0 | 0.00 | 0.03 | 0.03 | 85 | 1018.8 |
| 20260901193013 | 26 | 183 | 0.0 | 0.0 | 0.13 | 0.03 | 0.03 | 84 | 1018.8 |
| 20260901192508 | 26 | 182 | 0.0 | 0.0 | 0.13 | 0.03 | 0.03 | 84 | 1018.6 |
| 20260901192004 | 27 | 180 | 0.0 | 0.0 | 0.00 | 0.00 | 0.00 | 83 | 1018.5 |
| 20260901191500 | 27 | 201 | 0.0 | 0.0 | 0.00 | 0.00 | 0.00 | 83 | 1018.7 |
| 20260901190955 | 27 | 221 | 0.0 | 0.0 | 0.00 | 0.00 | 0.00 | 82 | 1019.0 |
| 20260901190451 | 27 | 224 | 0.0 | 0.0 | 0.00 | 0.00 | 0.00 | 82 | 1018.8 |
| 20260901185948 | 27 | 205 | 0.0 | 0.0 | 0.00 | 0.00 | 0.00 | 82 | 1018.8 |
| 20260901185443 | 27 | 188 | 0.0 | 0.0 | 0.00 | 0.00 | 0.00 | 81 | 1018.8 |
| 20260901184943 | 27 | 224 | 0.0 | 0.0 | 0.00 | 0.00 | 0.00 | 81 | 1019.0 |
| 20260901184438 | 27 | 209 | 0.0 | 0.0 | 0.00 | 0.00 | 0.00 | 80 | 1018.8 |
| 20260901183933 | 27 | 206 | 0.0 | 0.0 | 0.00 | 0.00 | 0.00 | 80 | 1018.7 |
| 20260901183433 | 28 | 216 | 0.0 | 0.0 | 0.00 | 0.00 | 0.00 | 79 | 1018.9 |
| 20260901182929 | 28 | 214 | 0.0 | 0.0 | 0.00 | 0.00 | 0.00 | 77 | 1018.8 |
| 20260901182425 | 28 | 179 | 0.0 | 0.0 | 0.00 | 0.00 | 0.00 | 78 | 1018.8 |
| 20260901181920 | 28 | 212 | 0.0 | 0.0 | 0.00 | 0.00 | 0.00 | 77 | 1019.3 |
| 20260901181420 | 28 | 334 | 0.0 | 0.0 | 0.00 | 0.00 | 0.00 | 77 | 1019.3 |
| 20260901180919 | 28 | 220 | 0.0 | 0.0 | 0.00 | 0.00 | 0.00 | 76 | 1019.1 |
| 20260901180418 | 29 | 218 | 0.0 | 0.0 | 0.00 | 0.00 | 0.00 | 76 | 1019.3 |
| 20260901175916 | 29 | 220 | 0.0 | 0.0 | 0.00 | 0.00 | 0.00 | 73 | 1019.3 |
| 20260901175412 | 29 | 198 | 0.0 | 0.0 | 0.00 | 0.00 | 0.00 | 73 | 1019.4 |
| 20260901174907 | 29 | 207 | 0.0 | 0.0 | 0.00 | 0.00 | 0.00 | 74 | 1019.2 |
| 20260901174403 | 29 | 194 | 0.0 | 0.0 | 0.00 | 0.00 | 0.00 | 76 | 1019.1 |
| 20260901173858 | 29 | 213 | 0.0 | 0.0 | 0.00 | 0.00 | 0.00 | 71 | 1019.2 |
| 20260901173353 | 29 | 200 | 0.0 | 0.0 | 0.00 | 0.00 | 0.00 | 74 | 1018.9 |
| 20260901172849 | 29 | 180 | 0.0 | 0.0 | 0.00 | 0.00 | 0.00 | 72 | 1019.2 |
| 20260901172348 | 29 | 131 | 0.0 | 0.0 | 0.00 | 0.00 | 0.00 | 74 | 1019.1 |
| 20260901171847 | 30 | 203 | 0.0 | 0.0 | 0.00 | 0.00 | 0.00 | 74 | 1018.9 |
| 20260901171346 | 30 | 201 | 0.0 | 0.0 | 0.00 | 0.00 | 0.00 | 75 | 1019.1 |
| 20260901170844 | 30 | 223 | 0.0 | 0.0 | 0.00 | 0.00 | 0.00 | 74 | 1019.2 |
| 20260901170340 | 30 | 166 | 0.0 | 0.0 | 0.00 | 0.00 | 0.00 | 72 | 1019.1 |
| 20260901165834 | 30 | 218 | 0.0 | 0.0 | 0.00 | 0.00 | 0.00 | 71 | 1019.2 |
| 20260901165333 | 30 | 221 | 0.0 | 0.0 | 0.00 | 0.00 | 0.00 | 71 | 1019.2 |
| 20260901164830 | 30 | 223 | 0.0 | 0.0 | 0.00 | 0.00 | 0.00 | 75 | 1019.1 |
| 20260901164326 | 31 | 148 | 0.0 | 0.0 | 0.00 | 0.00 | 0.00 | 73 | 1019.1 |
| 20260901163825 | 32 | 202 | 0.0 | 0.0 | 0.00 | 0.00 | 0.00 | 73 | 1019.1 |
| 20260901163320 | 32 | 197 | 0.0 | 0.0 | 0.00 | 0.00 | 0.00 | 72 | 1018.9 |
| 20260901162815 | 32 | 224 | 0.0 | 0.0 | 0.00 | 0.00 | 0.00 | 72 | 1019.1 |
| 20260901162314 | 31 | 195 | 0.0 | 0.0 | 0.00 | 0.00 | 0.00 | 77 | 1019.5 |
| 20260901161814 | 31 | 156 | 0.0 | 0.0 | 0.00 | 0.00 | 0.00 | 77 | 1019.3 |
| 20260901161308 | 30 | 215 | 0.0 | 0.0 | 0.00 | 0.00 | 0.00 | 78 | 1019.2 |
| 20260901160804 | 30 | 209 | 0.0 | 0.0 | 0.00 | 0.00 | 0.00 | 78 | 1019.1 |
| 20260901160300 | 30 | 204 | 0.0 | 0.0 | 0.00 | 0.00 | 0.00 | 77 | 1018.9 |
| 20260901155759 | 30 | 231 | 0.0 | 0.0 | 0.00 | 0.00 | 0.00 | 76 | 1019.4 |
| 20260901155254 | 31 | 225 | 0.0 | 0.0 | 0.00 | 0.00 | 0.00 | 76 | 1019.1 |
| 20260901154750 | 31 | 199 | 0.0 | 0.0 | 0.00 | 0.00 | 0.00 | 76 | 1019.1 |
| 20260901154244 | 31 | 203 | 0.0 | 0.0 | 0.00 | 0.00 | 0.00 | 76 | 1019.1 |
| 20260901153739 | 30 | 223 | 0.0 | 0.0 | 0.00 | 0.00 | 0.00 | 78 | 1019.1 |
| 20260901153238 | 30 | 172 | 0.0 | 0.0 | 0.00 | 0.00 | 0.00 | 78 | 1018.9 |
| 20260901152738 | 30 | 203 | 0.0 | 0.0 | 0.00 | 0.00 | 0.00 | 79 | 1019.2 |
| 20260901152237 | 30 | 220 | 0.0 | 0.0 | 0.00 | 0.00 | 0.00 | 80 | 1019.1 |
| 20260901151732 | 30 | 217 | 0.0 | 0.0 | 0.00 | 0.00 | 0.00 | 81 | 1018.9 |
| 20260901151227 | 29 | 204 | 0.0 | 0.0 | 0.00 | 0.00 | 0.00 | 81 | 1019.1 |
| 20260901150726 | 30 | 208 | 0.0 | 0.0 | 0.00 | 0.00 | 0.00 | 80 | 1019.2 |
| 20260901150224 | 30 | 227 | 0.0 | 0.0 | 0.00 | 0.00 | 0.00 | 80 | 1019.0 |
| 20260901145722 | 30 | 190 | 0.0 | 0.0 | 0.00 | 0.00 | 0.00 | 80 | 1018.7 |
| 20260901145222 | 30 | 206 | 0.0 | 0.0 | 0.00 | 0.00 | 0.00 | 80 | 1018.6 |
| 20260901144718 | 30 | 229 | 0.0 | 0.0 | 0.00 | 0.00 | 0.00 | 80 | 1018.9 |
| 20260901144213 | 30 | 226 | 0.0 | 0.0 | 0.00 | 0.00 | 0.00 | 80 | 1018.8 |
| 20260901143708 | 29 | 184 | 0.0 | 0.0 | 0.00 | 0.00 | 0.00 | 80 | 1018.8 |
| 20260901143204 | 29 | 219 | 0.0 | 0.0 | 0.00 | 0.00 | 0.00 | 81 | 1018.7 |
| 20260901142700 | 29 | 211 | 0.0 | 0.0 | 0.00 | 0.00 | 0.00 | 80 | 1018.8 |
| 20260901142159 | 29 | 200 | 0.0 | 0.0 | 0.00 | 0.00 | 0.00 | 81 | 1018.7 |
| 20260901141655 | 29 | 226 | 0.0 | 0.0 | 0.00 | 0.00 | 0.00 | 81 | 1019.0 |
| 20260901141154 | 29 | 215 | 0.0 | 0.0 | 0.00 | 0.00 | 0.00 | 81 | 1018.8 |
| 20260901140653 | 29 | 219 | 0.0 | 0.0 | 0.00 | 0.00 | 0.00 | 81 | 1018.8 |
| 20260901140152 | 29 | 195 | 0.0 | 0.0 | 0.00 | 0.00 | 0.00 | 81 | 1018.9 |
| 20260901135647 | 28 | 206 | 0.0 | 0.0 | 0.00 | 0.00 | 0.00 | 81 | 1018.8 |
| 20260901135142 | 28 | 227 | 0.0 | 0.0 | 0.00 | 0.00 | 0.00 | 81 | 1019.0 |
| 20260901134638 | 28 | 211 | 0.0 | 0.0 | 0.00 | 0.00 | 0.00 | 82 | 1018.9 |
| 20260901134139 | 28 | 199 | 0.0 | 0.0 | 0.00 | 0.00 | 0.00 | 83 | 1019.1 |
| 20260901133638 | 28 | 205 | 0.0 | 0.0 | 0.00 | 0.00 | 0.00 | 82 | 1019.0 |
| 20260901133136 | 28 | 205 | 0.0 | 0.0 | 0.00 | 0.00 | 0.00 | 83 | 1018.9 |
| 20260901132631 | 28 | 217 | 0.0 | 0.0 | 0.00 | 0.00 | 0.00 | 82 | 1018.9 |
| 20260901132132 | 28 | 216 | 0.0 | 0.0 | 0.00 | 0.00 | 0.00 | 83 | 1019.0 |
| 20260901131631 | 28 | 193 | 0.0 | 0.0 | 0.00 | 0.00 | 0.00 | 85 | 1018.9 |
| 20260901131126 | 27 | 209 | 0.0 | 0.0 | 0.00 | 0.00 | 0.00 | 86 | 1019.0 |
| 20260901130621 | 27 | 286 | 0.0 | 0.0 | 0.00 | 0.00 | 0.00 | 86 | 1018.9 |
| 20260901130119 | 27 | 213 | 0.0 | 0.0 | 0.00 | 0.00 | 0.00 | 87 | 1018.8 |
| 20260901125618 | 27 | 203 | 0.0 | 0.0 | 0.00 | 0.00 | 0.00 | 88 | 1018.8 |
| 20260901125114 | 27 | 184 | 0.0 | 0.0 | 0.00 | 0.00 | 0.00 | 89 | 1018.7 |
| 20260901124614 | 26 | 216 | 0.0 | 0.0 | 0.00 | 0.00 | 0.00 | 90 | 1018.8 |
| 20260901124108 | 26 | 212 | 0.0 | 0.0 | 0.00 | 0.00 | 0.00 | 90 | 1018.6 |
| 20260901123608 | 26 | 219 | 0.0 | 0.0 | 0.00 | 0.00 | 0.00 | 91 | 1018.5 |
| 20260901123108 | 26 | 209 | 0.0 | 0.0 | 0.00 | 0.00 | 0.00 | 92 | 1018.5 |
| 20260901122607 | 26 | 213 | 0.0 | 0.0 | 0.00 | 0.00 | 0.00 | 92 | 1018.3 |
| 20260901122106 | 25 | 217 | 0.0 | 0.0 | 0.00 | 0.00 | 0.00 | 92 | 1018.2 |
| 20260901121601 | 25 | 225 | 0.0 | 0.0 | 0.00 | 0.00 | 0.00 | 92 | 1018.4 |
| 20260901121057 | 25 | 222 | 0.0 | 0.0 | 0.00 | 0.00 | 0.00 | 92 | 1018.3 |
| 20260901120556 | 25 | 222 | 0.0 | 0.0 | 0.00 | 0.00 | 0.00 | 92 | 1018.5 |
| 20260901120052 | 25 | 222 | 0.0 | 0.0 | 0.00 | 0.00 | 0.00 | 92 | 1018.3 |
| 20260901115547 | 25 | 222 | 0.0 | 0.0 | 0.00 | 0.00 | 0.00 | 92 | 1018.0 |
| 20260901115044 | 25 | 222 | 0.0 | 0.0 | 0.00 | 0.00 | 0.00 | 92 | 1018.2 |
| 20260901114540 | 25 | 221 | 0.0 | 0.0 | 0.00 | 0.00 | 0.00 | 92 | 1018.2 |
| 20260901114038 | 25 | 222 | 0.0 | 0.0 | 0.00 | 0.00 | 0.00 | 92 | 1018.0 |
| 20260901113532 | 25 | 221 | 0.0 | 0.0 | 0.00 | 0.00 | 0.00 | 92 | 1017.9 |
| 20260901113028 | 25 | 222 | 0.0 | 0.0 | 0.00 | 0.00 | 0.00 | 92 | 1017.8 |
| 20260901112527 | 25 | 226 | 0.0 | 0.0 | 0.00 | 0.00 | 0.00 | 92 | 1018.0 |
| 20260901112022 | 25 | 226 | 0.0 | 0.0 | 0.00 | 0.00 | 0.00 | 91 | 1018.3 |
| 20260901111521 | 25 | 226 | 0.0 | 0.0 | 0.00 | 0.00 | 0.00 | 91 | 1018.1 |
| 20260901111019 | 25 | 225 | 0.0 | 0.0 | 0.00 | 0.00 | 0.00 | 92 | 1018.1 |
| 20260901110516 | 25 | 228 | 0.0 | 0.0 | 0.00 | 0.00 | 0.00 | 92 | 1017.8 |
| 20260901110011 | 25 | 221 | 0.0 | 0.0 | 0.00 | 0.00 | 0.00 | 92 | 1017.7 |
| 20260901105507 | 25 | 216 | 0.0 | 0.0 | 0.00 | 0.00 | 0.00 | 92 | 1017.8 |
| 20260901105006 | 25 | 214 | 0.0 | 0.0 | 0.00 | 0.00 | 0.00 | 92 | 1017.6 |
| 20260901104503 | 25 | 215 | 0.0 | 0.0 | 0.00 | 0.00 | 0.00 | 92 | 1017.3 |
| 20260901103958 | 25 | 216 | 0.0 | 0.0 | 0.00 | 0.00 | 0.00 | 92 | 1017.5 |
| 20260901103452 | 25 | 208 | 0.0 | 0.0 | 0.00 | 0.00 | 0.00 | 92 | 1017.6 |
| 20260901102948 | 25 | 209 | 0.0 | 0.0 | 0.00 | 0.00 | 0.00 | 92 | 1017.6 |
| 20260901102442 | 25 | 212 | 0.0 | 0.0 | 0.00 | 0.00 | 0.00 | 92 | 1017.5 |
| 20260901101937 | 25 | 212 | 0.0 | 0.0 | 0.00 | 0.00 | 0.00 | 92 | 1017.6 |
| 20260901101432 | 25 | 212 | 0.0 | 0.0 | 0.00 | 0.00 | 0.00 | 92 | 1017.6 |
| 20260901100931 | 25 | 211 | 0.0 | 0.0 | 0.00 | 0.00 | 0.00 | 92 | 1017.5 |
| 20260901100421 | 25 | 212 | 0.0 | 0.0 | 0.00 | 0.00 | 0.00 | 92 | 1017.7 |
| 20260901095920 | 25 | 214 | 0.0 | 0.0 | 0.00 | 0.00 | 0.00 | 92 | 1017.7 |
| 20260901095419 | 25 | 213 | 0.0 | 0.0 | 0.00 | 0.00 | 0.00 | 92 | 1017.8 |
| 20260901094917 | 25 | 213 | 0.0 | 0.0 | 0.00 | 0.00 | 0.00 | 92 | 1017.8 |
| 20260901094418 | 25 | 214 | 0.0 | 0.0 | 0.00 | 0.00 | 0.00 | 91 | 1017.6 |
| 20260901093912 | 25 | 214 | 0.0 | 0.0 | 0.00 | 0.00 | 0.00 | 91 | 1017.4 |
| 20260901093411 | 25 | 214 | 0.0 | 0.0 | 0.00 | 0.00 | 0.00 | 91 | 1017.6 |